Date_Time,Julian_Date,Latitude,Longitude,Instrument_Depth,U,V,Speed,Direction
(yyyy-mm-dd hh:mn:ss UTC),(JD),(+ deg. North),(+ deg. East),(m),(cm/s),(cm/s),(cm/s),(deg True)
1981-06-27 22:00:00 UTC,2444783.416667,28.7317,-95.2428,0109,-2.54,-5.44,6.0000,205.0000
1981-06-27 22:30:00 UTC,2444783.437500,28.7317,-95.2428,0109,-1.69,-6.79,7.0000,194.0000
1981-06-27 23:00:00 UTC,2444783.458333,28.7317,-95.2428,0109,-0.73,-6.96,7.0000,186.0000
1981-06-27 23:30:00 UTC,2444783.479167,28.7317,-95.2428,0109,0.00,-7.00,7.0000,180.0000
1981-06-28 00:00:00 UTC,2444783.500000,28.7317,-95.2428,0109,1.46,-6.85,7.0000,168.0000
1981-06-28 00:30:00 UTC,2444783.520833,28.7317,-95.2428,0109,3.76,-7.06,8.0000,152.0000
1981-06-28 01:00:00 UTC,2444783.541667,28.7317,-95.2428,0109,6.16,-7.88,10.0000,142.0000
1981-06-28 01:30:00 UTC,2444783.562500,28.7317,-95.2428,0109,7.07,-8.43,11.0000,140.0000
1981-06-28 02:00:00 UTC,2444783.583333,28.7317,-95.2428,0109,7.22,-9.58,12.0000,143.0000
1981-06-28 02:30:00 UTC,2444783.604167,28.7317,-95.2428,0109,6.79,-12.24,14.0000,151.0000
1981-06-28 03:00:00 UTC,2444783.625000,28.7317,-95.2428,0109,5.81,-15.97,17.0000,160.0000
1981-06-28 03:30:00 UTC,2444783.645833,28.7317,-95.2428,0109,4.27,-18.51,19.0000,167.0000
1981-06-28 04:00:00 UTC,2444783.666667,28.7317,-95.2428,0109,2.44,-19.85,20.0000,173.0000
1981-06-28 04:30:00 UTC,2444783.687500,28.7317,-95.2428,0109,0.00,-22.00,22.0000,180.0000
1981-06-28 05:00:00 UTC,2444783.708333,28.7317,-95.2428,0109,-3.34,-23.77,24.0000,188.0000
1981-06-28 05:30:00 UTC,2444783.729167,28.7317,-95.2428,0109,-6.99,-26.08,27.0000,195.0000
1981-06-28 06:00:00 UTC,2444783.750000,28.7317,-95.2428,0109,-10.03,-26.14,28.0000,201.0000
1981-06-28 06:30:00 UTC,2444783.770833,28.7317,-95.2428,0109,-12.71,-24.95,28.0000,207.0000
1981-06-28 07:00:00 UTC,2444783.791667,28.7317,-95.2428,0109,-14.16,-21.81,26.0000,213.0000
1981-06-28 07:30:00 UTC,2444783.812500,28.7317,-95.2428,0109,-15.73,-19.43,25.0000,219.0000
1981-06-28 08:00:00 UTC,2444783.833333,28.7317,-95.2428,0109,-17.68,-17.68,25.0000,225.0000
1981-06-28 08:30:00 UTC,2444783.854167,28.7317,-95.2428,0109,-20.06,-18.07,27.0000,228.0000
1981-06-28 09:00:00 UTC,2444783.875000,28.7317,-95.2428,0109,-20.15,-20.86,29.0000,224.0000
1981-06-28 09:30:00 UTC,2444783.895833,28.7317,-95.2428,0109,-21.65,-24.91,33.0000,221.0000
1981-06-28 10:00:00 UTC,2444783.916667,28.7317,-95.2428,0109,-24.31,-25.18,35.0000,224.0000
1981-06-28 10:30:00 UTC,2444783.937500,28.7317,-95.2428,0109,-24.87,-23.19,34.0000,227.0000
1981-06-28 11:00:00 UTC,2444783.958333,28.7317,-95.2428,0109,-23.75,-19.93,31.0000,230.0000
1981-06-28 11:30:00 UTC,2444783.979167,28.7317,-95.2428,0109,-23.64,-18.47,30.0000,232.0000
1981-06-28 12:00:00 UTC,2444784.000000,28.7317,-95.2428,0109,-23.46,-17.05,29.0000,234.0000
1981-06-28 12:30:00 UTC,2444784.020833,28.7317,-95.2428,0109,-21.30,-14.91,26.0000,235.0000
1981-06-28 13:00:00 UTC,2444784.041667,28.7317,-95.2428,0109,-20.57,-12.36,24.0000,239.0000
1981-06-28 13:30:00 UTC,2444784.062500,28.7317,-95.2428,0109,-20.67,-10.08,23.0000,244.0000
1981-06-28 14:00:00 UTC,2444784.083333,28.7317,-95.2428,0109,-20.85,-9.72,23.0000,245.0000
1981-06-28 14:30:00 UTC,2444784.104167,28.7317,-95.2428,0109,-19.86,-6.84,21.0000,251.0000
1981-06-28 15:00:00 UTC,2444784.125000,28.7317,-95.2428,0109,-19.81,-2.78,20.0000,262.0000
1981-06-28 15:30:00 UTC,2444784.145833,28.7317,-95.2428,0109,-20.00,-0.00,20.0000,270.0000
1981-06-28 16:00:00 UTC,2444784.166667,28.7317,-95.2428,0109,-19.89,2.09,20.0000,276.0000
1981-06-28 16:30:00 UTC,2444784.187500,28.7317,-95.2428,0109,-20.46,4.72,21.0000,283.0000
1981-06-28 17:00:00 UTC,2444784.208333,28.7317,-95.2428,0109,-19.61,7.53,21.0000,291.0000
1981-06-28 17:30:00 UTC,2444784.229167,28.7317,-95.2428,0109,-15.26,9.54,18.0000,302.0000
1981-06-28 18:00:00 UTC,2444784.250000,28.7317,-95.2428,0109,-10.97,10.23,15.0000,313.0000
1981-06-28 18:30:00 UTC,2444784.270833,28.7317,-95.2428,0109,-10.07,9.73,14.0000,314.0000
1981-06-28 19:00:00 UTC,2444784.291667,28.7317,-95.2428,0109,-9.81,8.53,13.0000,311.0000
1981-06-28 19:30:00 UTC,2444784.312500,28.7317,-95.2428,0109,-7.78,7.78,11.0000,315.0000
1981-06-28 20:00:00 UTC,2444784.333333,28.7317,-95.2428,0109,-4.36,7.87,9.0000,331.0000
1981-06-28 20:30:00 UTC,2444784.354167,28.7317,-95.2428,0109,0.31,5.99,6.0000,3.0000
1981-06-28 21:00:00 UTC,2444784.375000,28.7317,-95.2428,0109,3.11,2.52,4.0000,51.0000
1981-06-28 21:30:00 UTC,2444784.395833,28.7317,-95.2428,0109,3.94,-0.69,4.0000,100.0000
1981-06-28 22:00:00 UTC,2444784.416667,28.7317,-95.2428,0109,4.33,-2.50,5.0000,120.0000
1981-06-28 22:30:00 UTC,2444784.437500,28.7317,-95.2428,0109,3.71,-1.50,4.0000,112.0000
1981-06-28 23:00:00 UTC,2444784.458333,28.7317,-95.2428,0109,3.00,-0.10,3.0000,92.0000
1981-06-28 23:30:00 UTC,2444784.479167,28.7317,-95.2428,0109,2.98,0.37,3.0000,83.0000
1981-06-29 00:00:00 UTC,2444784.500000,28.7317,-95.2428,0109,3.00,0.10,3.0000,88.0000
1981-06-29 00:30:00 UTC,2444784.520833,28.7317,-95.2428,0109,3.86,-1.04,4.0000,105.0000
1981-06-29 01:00:00 UTC,2444784.541667,28.7317,-95.2428,0109,3.60,-1.75,4.0000,116.0000
1981-06-29 01:30:00 UTC,2444784.562500,28.7317,-95.2428,0109,3.56,-1.82,4.0000,117.0000
1981-06-29 02:00:00 UTC,2444784.583333,28.7317,-95.2428,0109,4.57,-2.03,5.0000,114.0000
1981-06-29 02:30:00 UTC,2444784.604167,28.7317,-95.2428,0109,5.80,-1.55,6.0000,105.0000
1981-06-29 03:00:00 UTC,2444784.625000,28.7317,-95.2428,0109,5.99,-0.31,6.0000,93.0000
1981-06-29 03:30:00 UTC,2444784.645833,28.7317,-95.2428,0109,6.99,-0.37,7.0000,93.0000
1981-06-29 04:00:00 UTC,2444784.666667,28.7317,-95.2428,0109,7.65,-2.34,8.0000,107.0000
1981-06-29 04:30:00 UTC,2444784.687500,28.7317,-95.2428,0109,7.71,-4.64,9.0000,121.0000
1981-06-29 05:00:00 UTC,2444784.708333,28.7317,-95.2428,0109,7.31,-6.82,10.0000,133.0000
1981-06-29 05:30:00 UTC,2444784.729167,28.7317,-95.2428,0109,4.85,-8.75,10.0000,151.0000
1981-06-29 06:00:00 UTC,2444784.750000,28.7317,-95.2428,0109,1.72,-10.86,11.0000,171.0000
1981-06-29 06:30:00 UTC,2444784.770833,28.7317,-95.2428,0109,-1.58,-12.90,13.0000,187.0000
1981-06-29 07:00:00 UTC,2444784.791667,28.7317,-95.2428,0109,-4.33,-13.31,14.0000,198.0000
1981-06-29 07:30:00 UTC,2444784.812500,28.7317,-95.2428,0109,-6.51,-14.62,16.0000,204.0000
1981-06-29 08:00:00 UTC,2444784.833333,28.7317,-95.2428,0109,-8.24,-13.71,16.0000,211.0000
1981-06-29 08:30:00 UTC,2444784.854167,28.7317,-95.2428,0109,-10.70,-13.21,17.0000,219.0000
1981-06-29 09:00:00 UTC,2444784.875000,28.7317,-95.2428,0109,-13.16,-12.28,18.0000,227.0000
1981-06-29 09:30:00 UTC,2444784.895833,28.7317,-95.2428,0109,-14.97,-11.70,19.0000,232.0000
1981-06-29 10:00:00 UTC,2444784.916667,28.7317,-95.2428,0109,-16.18,-11.76,20.0000,234.0000
1981-06-29 10:30:00 UTC,2444784.937500,28.7317,-95.2428,0109,-16.58,-11.18,20.0000,236.0000
1981-06-29 11:00:00 UTC,2444784.958333,28.7317,-95.2428,0109,-16.11,-10.07,19.0000,238.0000
1981-06-29 11:30:00 UTC,2444784.979167,28.7317,-95.2428,0109,-17.08,-8.33,19.0000,244.0000
1981-06-29 12:00:00 UTC,2444785.000000,28.7317,-95.2428,0109,-17.02,-5.86,18.0000,251.0000
1981-06-29 12:30:00 UTC,2444785.020833,28.7317,-95.2428,0109,-17.47,-4.35,18.0000,256.0000
1981-06-29 13:00:00 UTC,2444785.041667,28.7317,-95.2428,0109,-18.86,-2.32,19.0000,263.0000
1981-06-29 13:30:00 UTC,2444785.062500,28.7317,-95.2428,0109,-18.99,0.66,19.0000,272.0000
1981-06-29 14:00:00 UTC,2444785.083333,28.7317,-95.2428,0109,-18.77,2.97,19.0000,279.0000
1981-06-29 14:30:00 UTC,2444785.104167,28.7317,-95.2428,0109,-18.26,5.24,19.0000,286.0000
1981-06-29 15:00:00 UTC,2444785.125000,28.7317,-95.2428,0109,-18.54,7.49,20.0000,292.0000
1981-06-29 15:30:00 UTC,2444785.145833,28.7317,-95.2428,0109,-17.22,8.03,19.0000,295.0000
1981-06-29 16:00:00 UTC,2444785.166667,28.7317,-95.2428,0109,-15.43,9.27,18.0000,301.0000
1981-06-29 16:30:00 UTC,2444785.187500,28.7317,-95.2428,0109,-13.58,11.81,18.0000,311.0000
1981-06-29 17:00:00 UTC,2444785.208333,28.7317,-95.2428,0109,-12.21,14.55,19.0000,320.0000
1981-06-29 17:30:00 UTC,2444785.229167,28.7317,-95.2428,0109,-10.07,14.92,18.0000,326.0000
1981-06-29 18:00:00 UTC,2444785.250000,28.7317,-95.2428,0109,-8.24,14.87,17.0000,331.0000
1981-06-29 18:30:00 UTC,2444785.270833,28.7317,-95.2428,0109,-6.58,13.48,15.0000,334.0000
1981-06-29 19:00:00 UTC,2444785.291667,28.7317,-95.2428,0109,-5.02,13.07,14.0000,339.0000
1981-06-29 19:30:00 UTC,2444785.312500,28.7317,-95.2428,0109,-1.46,11.91,12.0000,353.0000
1981-06-29 20:00:00 UTC,2444785.333333,28.7317,-95.2428,0109,3.03,10.57,11.0000,16.0000
1981-06-29 20:30:00 UTC,2444785.354167,28.7317,-95.2428,0109,6.02,6.69,9.0000,42.0000
1981-06-29 21:00:00 UTC,2444785.375000,28.7317,-95.2428,0109,7.85,1.53,8.0000,79.0000
1981-06-29 21:30:00 UTC,2444785.395833,28.7317,-95.2428,0109,7.61,-2.47,8.0000,108.0000
1981-06-29 22:00:00 UTC,2444785.416667,28.7317,-95.2428,0109,7.71,-4.64,9.0000,121.0000
1981-06-29 22:30:00 UTC,2444785.437500,28.7317,-95.2428,0109,7.37,-5.16,9.0000,125.0000
1981-06-29 23:00:00 UTC,2444785.458333,28.7317,-95.2428,0109,7.77,-6.29,10.0000,129.0000
1981-06-29 23:30:00 UTC,2444785.479167,28.7317,-95.2428,0109,7.19,-6.95,10.0000,134.0000
1981-06-30 00:00:00 UTC,2444785.500000,28.7317,-95.2428,0109,6.92,-8.55,11.0000,141.0000
1981-06-30 00:30:00 UTC,2444785.520833,28.7317,-95.2428,0109,6.10,-11.48,13.0000,152.0000
1981-06-30 01:00:00 UTC,2444785.541667,28.7317,-95.2428,0109,4.09,-13.39,14.0000,163.0000
1981-06-30 01:30:00 UTC,2444785.562500,28.7317,-95.2428,0109,3.39,-13.58,14.0000,166.0000
1981-06-30 02:00:00 UTC,2444785.583333,28.7317,-95.2428,0109,3.31,-11.54,12.0000,164.0000
1981-06-30 02:30:00 UTC,2444785.604167,28.7317,-95.2428,0109,2.90,-11.64,12.0000,166.0000
1981-06-30 03:00:00 UTC,2444785.625000,28.7317,-95.2428,0109,2.43,-13.79,14.0000,170.0000
1981-06-30 03:30:00 UTC,2444785.645833,28.7317,-95.2428,0109,3.33,-15.65,16.0000,168.0000
1981-06-30 04:00:00 UTC,2444785.666667,28.7317,-95.2428,0109,5.25,-16.17,17.0000,162.0000
1981-06-30 04:30:00 UTC,2444785.687500,28.7317,-95.2428,0109,7.61,-16.31,18.0000,155.0000
1981-06-30 05:00:00 UTC,2444785.708333,28.7317,-95.2428,0109,8.77,-17.98,20.0000,154.0000
1981-06-30 05:30:00 UTC,2444785.729167,28.7317,-95.2428,0109,8.24,-21.47,23.0000,159.0000
1981-06-30 06:00:00 UTC,2444785.750000,28.7317,-95.2428,0109,6.21,-23.18,24.0000,165.0000
1981-06-30 06:30:00 UTC,2444785.770833,28.7317,-95.2428,0109,2.80,-22.83,23.0000,173.0000
1981-06-30 07:00:00 UTC,2444785.791667,28.7317,-95.2428,0109,-3.44,-21.73,22.0000,189.0000
1981-06-30 07:30:00 UTC,2444785.812500,28.7317,-95.2428,0109,-8.95,-20.10,22.0000,204.0000
1981-06-30 08:00:00 UTC,2444785.833333,28.7317,-95.2428,0109,-12.30,-18.24,22.0000,214.0000
1981-06-30 08:30:00 UTC,2444785.854167,28.7317,-95.2428,0109,-16.35,-14.72,22.0000,228.0000
1981-06-30 09:00:00 UTC,2444785.875000,28.7317,-95.2428,0109,-20.85,-9.72,23.0000,245.0000
1981-06-30 09:30:00 UTC,2444785.895833,28.7317,-95.2428,0109,-25.43,-5.41,26.0000,258.0000
1981-06-30 10:00:00 UTC,2444785.916667,28.7317,-95.2428,0109,-29.78,-3.66,30.0000,263.0000
1981-06-30 10:30:00 UTC,2444785.937500,28.7317,-95.2428,0109,-30.83,-3.24,31.0000,264.0000
1981-06-30 11:00:00 UTC,2444785.958333,28.7317,-95.2428,0109,-31.76,-3.90,32.0000,263.0000
1981-06-30 11:30:00 UTC,2444785.979167,28.7317,-95.2428,0109,-31.69,-4.45,32.0000,262.0000
1981-06-30 12:00:00 UTC,2444786.000000,28.7317,-95.2428,0109,-30.62,-4.85,31.0000,261.0000
1981-06-30 12:30:00 UTC,2444786.020833,28.7317,-95.2428,0109,-29.63,-4.69,30.0000,261.0000
1981-06-30 13:00:00 UTC,2444786.041667,28.7317,-95.2428,0109,-29.54,-5.21,30.0000,260.0000
1981-06-30 13:30:00 UTC,2444786.062500,28.7317,-95.2428,0109,-30.43,-5.92,31.0000,259.0000
1981-06-30 14:00:00 UTC,2444786.083333,28.7317,-95.2428,0109,-29.94,-8.02,31.0000,255.0000
1981-06-30 14:30:00 UTC,2444786.104167,28.7317,-95.2428,0109,-27.07,-10.39,29.0000,249.0000
1981-06-30 15:00:00 UTC,2444786.125000,28.7317,-95.2428,0109,-23.93,-10.16,26.0000,247.0000
1981-06-30 15:30:00 UTC,2444786.145833,28.7317,-95.2428,0109,-21.75,-10.14,24.0000,245.0000
1981-06-30 16:00:00 UTC,2444786.166667,28.7317,-95.2428,0109,-20.12,-11.15,23.0000,241.0000
1981-06-30 16:30:00 UTC,2444786.187500,28.7317,-95.2428,0109,-18.86,-11.33,22.0000,239.0000
1981-06-30 17:00:00 UTC,2444786.208333,28.7317,-95.2428,0109,-18.86,-11.33,22.0000,239.0000
1981-06-30 17:30:00 UTC,2444786.229167,28.7317,-95.2428,0109,-18.66,-11.66,22.0000,238.0000
1981-06-30 18:00:00 UTC,2444786.250000,28.7317,-95.2428,0109,-18.61,-13.52,23.0000,234.0000
1981-06-30 18:30:00 UTC,2444786.270833,28.7317,-95.2428,0109,-19.62,-17.06,26.0000,229.0000
1981-06-30 19:00:00 UTC,2444786.291667,28.7317,-95.2428,0109,-21.55,-19.40,29.0000,228.0000
1981-06-30 19:30:00 UTC,2444786.312500,28.7317,-95.2428,0109,-23.75,-19.93,31.0000,230.0000
1981-06-30 20:00:00 UTC,2444786.333333,28.7317,-95.2428,0109,-26.00,-20.32,33.0000,232.0000
1981-06-30 20:30:00 UTC,2444786.354167,28.7317,-95.2428,0109,-30.35,-22.87,38.0000,233.0000
1981-06-30 21:00:00 UTC,2444786.375000,28.7317,-95.2428,0109,-36.74,-27.68,46.0000,233.0000
1981-06-30 21:30:00 UTC,2444786.395833,28.7317,-95.2428,0109,-39.40,-30.78,50.0000,232.0000
1981-06-30 22:00:00 UTC,2444786.416667,28.7317,-95.2428,0109,-38.86,-31.47,50.0000,231.0000
1981-06-30 22:30:00 UTC,2444786.437500,28.7317,-95.2428,0109,-38.64,-34.79,52.0000,228.0000
1981-06-30 23:00:00 UTC,2444786.458333,28.7317,-95.2428,0109,-38.18,-38.18,54.0000,225.0000
1981-06-30 23:30:00 UTC,2444786.479167,28.7317,-95.2428,0109,-36.83,-39.49,54.0000,223.0000
1981-07-01 00:00:00 UTC,2444786.500000,28.7317,-95.2428,0109,-34.78,-37.30,51.0000,223.0000
1981-07-01 00:30:00 UTC,2444786.520833,28.7317,-95.2428,0109,-30.78,-34.18,46.0000,222.0000
1981-07-01 01:00:00 UTC,2444786.541667,28.7317,-95.2428,0109,-29.87,-30.93,43.0000,224.0000
1981-07-01 01:30:00 UTC,2444786.562500,28.7317,-95.2428,0109,-33.21,-28.87,44.0000,229.0000
1981-07-01 02:00:00 UTC,2444786.583333,28.7317,-95.2428,0109,-36.41,-26.45,45.0000,234.0000
1981-07-01 02:30:00 UTC,2444786.604167,28.7317,-95.2428,0109,-39.36,-21.82,45.0000,241.0000
1981-07-01 03:00:00 UTC,2444786.625000,28.7317,-95.2428,0109,-42.94,-16.49,46.0000,249.0000
1981-07-01 03:30:00 UTC,2444786.645833,28.7317,-95.2428,0109,-43.03,-13.16,45.0000,253.0000
1981-07-01 04:00:00 UTC,2444786.666667,28.7317,-95.2428,0109,-42.69,-10.64,44.0000,256.0000
1981-07-01 04:30:00 UTC,2444786.687500,28.7317,-95.2428,0109,-41.23,-8.01,42.0000,259.0000
1981-07-01 05:00:00 UTC,2444786.708333,28.7317,-95.2428,0109,-39.61,-5.57,40.0000,262.0000
1981-07-01 05:30:00 UTC,2444786.729167,28.7317,-95.2428,0109,-35.91,-2.51,36.0000,266.0000
1981-07-01 06:00:00 UTC,2444786.750000,28.7317,-95.2428,0109,-32.00,-0.00,32.0000,270.0000
1981-07-01 06:30:00 UTC,2444786.770833,28.7317,-95.2428,0109,-29.00,0.51,29.0000,271.0000
1981-07-01 07:00:00 UTC,2444786.791667,28.7317,-95.2428,0109,-26.00,0.45,26.0000,271.0000
1981-07-01 07:30:00 UTC,2444786.812500,28.7317,-95.2428,0109,-25.00,0.44,25.0000,271.0000
1981-07-01 08:00:00 UTC,2444786.833333,28.7317,-95.2428,0109,-25.00,0.44,25.0000,271.0000
1981-07-01 08:30:00 UTC,2444786.854167,28.7317,-95.2428,0109,-24.00,-0.42,24.0000,269.0000
1981-07-01 09:00:00 UTC,2444786.875000,28.7317,-95.2428,0109,-24.94,-1.74,25.0000,266.0000
1981-07-01 09:30:00 UTC,2444786.895833,28.7317,-95.2428,0109,-26.85,-2.82,27.0000,264.0000
1981-07-01 10:00:00 UTC,2444786.916667,28.7317,-95.2428,0109,-27.89,-2.44,28.0000,265.0000
1981-07-01 10:30:00 UTC,2444786.937500,28.7317,-95.2428,0109,-25.86,-2.72,26.0000,264.0000
1981-07-01 11:00:00 UTC,2444786.958333,28.7317,-95.2428,0109,-21.44,-4.95,22.0000,257.0000
1981-07-01 11:30:00 UTC,2444786.979167,28.7317,-95.2428,0109,-17.66,-9.39,20.0000,242.0000
1981-07-01 12:00:00 UTC,2444787.000000,28.7317,-95.2428,0109,-17.34,-13.54,22.0000,232.0000
1981-07-01 12:30:00 UTC,2444787.020833,28.7317,-95.2428,0109,-16.60,-14.43,22.0000,229.0000
1981-07-01 13:00:00 UTC,2444787.041667,28.7317,-95.2428,0109,-17.10,-13.85,22.0000,231.0000
1981-07-01 13:30:00 UTC,2444787.062500,28.7317,-95.2428,0109,-16.77,-12.64,21.0000,233.0000
1981-07-01 14:00:00 UTC,2444787.083333,28.7317,-95.2428,0109,-16.58,-11.18,20.0000,236.0000
1981-07-01 14:30:00 UTC,2444787.104167,28.7317,-95.2428,0109,-16.11,-10.07,19.0000,238.0000
1981-07-01 15:00:00 UTC,2444787.125000,28.7317,-95.2428,0109,-16.45,-9.50,19.0000,240.0000
1981-07-01 15:30:00 UTC,2444787.145833,28.7317,-95.2428,0109,-17.49,-9.70,20.0000,241.0000
1981-07-01 16:00:00 UTC,2444787.166667,28.7317,-95.2428,0109,-20.49,-10.44,23.0000,243.0000
1981-07-01 16:30:00 UTC,2444787.187500,28.7317,-95.2428,0109,-21.93,-9.76,24.0000,246.0000
1981-07-01 17:00:00 UTC,2444787.208333,28.7317,-95.2428,0109,-23.64,-8.14,25.0000,251.0000
1981-07-01 17:30:00 UTC,2444787.229167,28.7317,-95.2428,0109,-26.50,-5.15,27.0000,259.0000
1981-07-01 18:00:00 UTC,2444787.250000,28.7317,-95.2428,0109,-28.96,-1.52,29.0000,267.0000
1981-07-01 18:30:00 UTC,2444787.270833,28.7317,-95.2428,0109,-28.96,1.52,29.0000,273.0000
1981-07-01 19:00:00 UTC,2444787.291667,28.7317,-95.2428,0109,-25.90,2.27,26.0000,275.0000
1981-07-01 19:30:00 UTC,2444787.312500,28.7317,-95.2428,0109,-23.99,0.84,24.0000,272.0000
1981-07-01 20:00:00 UTC,2444787.333333,28.7317,-95.2428,0109,-23.99,-0.84,24.0000,268.0000
1981-07-01 20:30:00 UTC,2444787.354167,28.7317,-95.2428,0109,-24.86,-2.61,25.0000,264.0000
1981-07-01 21:00:00 UTC,2444787.375000,28.7317,-95.2428,0109,-26.31,-6.07,27.0000,257.0000
1981-07-01 21:30:00 UTC,2444787.395833,28.7317,-95.2428,0109,-28.37,-9.77,30.0000,251.0000
1981-07-01 22:00:00 UTC,2444787.416667,28.7317,-95.2428,0109,-28.54,-12.11,31.0000,247.0000
1981-07-01 22:30:00 UTC,2444787.437500,28.7317,-95.2428,0109,-26.49,-14.08,30.0000,242.0000
1981-07-01 23:00:00 UTC,2444787.458333,28.7317,-95.2428,0109,-26.00,-16.88,31.0000,237.0000
1981-07-01 23:30:00 UTC,2444787.479167,28.7317,-95.2428,0109,-27.14,-16.96,32.0000,238.0000
1981-07-02 00:00:00 UTC,2444787.500000,28.7317,-95.2428,0109,-29.40,-14.98,33.0000,243.0000
1981-07-02 00:30:00 UTC,2444787.520833,28.7317,-95.2428,0109,-30.38,-12.89,33.0000,247.0000
1981-07-02 01:00:00 UTC,2444787.541667,28.7317,-95.2428,0109,-31.01,-11.29,33.0000,250.0000
1981-07-02 01:30:00 UTC,2444787.562500,28.7317,-95.2428,0109,-30.60,-9.36,32.0000,253.0000
1981-07-02 02:00:00 UTC,2444787.583333,28.7317,-95.2428,0109,-29.11,-7.26,30.0000,256.0000
1981-07-02 02:30:00 UTC,2444787.604167,28.7317,-95.2428,0109,-28.47,-5.53,29.0000,259.0000
1981-07-02 03:00:00 UTC,2444787.625000,28.7317,-95.2428,0109,-27.73,-3.90,28.0000,262.0000
1981-07-02 03:30:00 UTC,2444787.645833,28.7317,-95.2428,0109,-25.90,-2.27,26.0000,265.0000
1981-07-02 04:00:00 UTC,2444787.666667,28.7317,-95.2428,0109,-25.00,-0.44,25.0000,269.0000
1981-07-02 04:30:00 UTC,2444787.687500,28.7317,-95.2428,0109,-23.97,1.26,24.0000,273.0000
1981-07-02 05:00:00 UTC,2444787.708333,28.7317,-95.2428,0109,-21.84,2.68,22.0000,277.0000
1981-07-02 05:30:00 UTC,2444787.729167,28.7317,-95.2428,0109,-20.68,3.65,21.0000,280.0000
1981-07-02 06:00:00 UTC,2444787.750000,28.7317,-95.2428,0109,-20.54,4.37,21.0000,282.0000
1981-07-02 06:30:00 UTC,2444787.770833,28.7317,-95.2428,0109,-19.41,4.84,20.0000,284.0000
1981-07-02 07:00:00 UTC,2444787.791667,28.7317,-95.2428,0109,-18.91,6.51,20.0000,289.0000
1981-07-02 07:30:00 UTC,2444787.812500,28.7317,-95.2428,0109,-17.36,7.73,19.0000,294.0000
1981-07-02 08:00:00 UTC,2444787.833333,28.7317,-95.2428,0109,-16.93,8.63,19.0000,297.0000
1981-07-02 08:30:00 UTC,2444787.854167,28.7317,-95.2428,0109,-16.93,8.63,19.0000,297.0000
1981-07-02 09:00:00 UTC,2444787.875000,28.7317,-95.2428,0109,-14.50,6.76,16.0000,295.0000
1981-07-02 09:30:00 UTC,2444787.895833,28.7317,-95.2428,0109,-11.28,4.10,12.0000,290.0000
1981-07-02 10:00:00 UTC,2444787.916667,28.7317,-95.2428,0109,-9.82,1.91,10.0000,281.0000
1981-07-02 10:30:00 UTC,2444787.937500,28.7317,-95.2428,0109,-9.99,0.35,10.0000,272.0000
1981-07-02 11:00:00 UTC,2444787.958333,28.7317,-95.2428,0109,-9.96,-0.87,10.0000,265.0000
1981-07-02 11:30:00 UTC,2444787.979167,28.7317,-95.2428,0109,-10.89,-1.53,11.0000,262.0000
1981-07-02 12:00:00 UTC,2444788.000000,28.7317,-95.2428,0109,-12.80,-2.26,13.0000,260.0000
1981-07-02 12:30:00 UTC,2444788.020833,28.7317,-95.2428,0109,-12.84,-2.03,13.0000,261.0000
1981-07-02 13:00:00 UTC,2444788.041667,28.7317,-95.2428,0109,-11.88,-1.67,12.0000,262.0000
1981-07-02 13:30:00 UTC,2444788.062500,28.7317,-95.2428,0109,-10.97,-0.77,11.0000,266.0000
1981-07-02 14:00:00 UTC,2444788.083333,28.7317,-95.2428,0109,-10.99,0.38,11.0000,272.0000
1981-07-02 14:30:00 UTC,2444788.104167,28.7317,-95.2428,0109,-10.83,1.91,11.0000,280.0000
1981-07-02 15:00:00 UTC,2444788.125000,28.7317,-95.2428,0109,-9.27,3.75,10.0000,292.0000
1981-07-02 15:30:00 UTC,2444788.145833,28.7317,-95.2428,0109,-7.66,6.43,10.0000,310.0000
1981-07-02 16:00:00 UTC,2444788.166667,28.7317,-95.2428,0109,-5.99,9.23,11.0000,327.0000
1981-07-02 16:30:00 UTC,2444788.187500,28.7317,-95.2428,0109,-4.69,11.05,12.0000,337.0000
1981-07-02 17:00:00 UTC,2444788.208333,28.7317,-95.2428,0109,-3.51,11.48,12.0000,343.0000
1981-07-02 17:30:00 UTC,2444788.229167,28.7317,-95.2428,0109,-2.90,11.64,12.0000,346.0000
1981-07-02 18:00:00 UTC,2444788.250000,28.7317,-95.2428,0109,-2.48,12.76,13.0000,349.0000
1981-07-02 18:30:00 UTC,2444788.270833,28.7317,-95.2428,0109,-1.81,12.87,13.0000,352.0000
1981-07-02 19:00:00 UTC,2444788.291667,28.7317,-95.2428,0109,-0.42,11.99,12.0000,358.0000
1981-07-02 19:30:00 UTC,2444788.312500,28.7317,-95.2428,0109,1.05,11.95,12.0000,5.0000
1981-07-02 20:00:00 UTC,2444788.333333,28.7317,-95.2428,0109,2.08,11.82,12.0000,10.0000
1981-07-02 20:30:00 UTC,2444788.354167,28.7317,-95.2428,0109,2.49,11.74,12.0000,12.0000
1981-07-02 21:00:00 UTC,2444788.375000,28.7317,-95.2428,0109,1.53,10.89,11.0000,8.0000
1981-07-02 21:30:00 UTC,2444788.395833,28.7317,-95.2428,0109,-0.52,9.99,10.0000,357.0000
1981-07-02 22:00:00 UTC,2444788.416667,28.7317,-95.2428,0109,-2.33,8.69,9.0000,345.0000
1981-07-02 22:30:00 UTC,2444788.437500,28.7317,-95.2428,0109,-3.63,7.13,8.0000,333.0000
1981-07-02 23:00:00 UTC,2444788.458333,28.7317,-95.2428,0109,-4.21,5.59,7.0000,323.0000
1981-07-02 23:30:00 UTC,2444788.479167,28.7317,-95.2428,0109,-4.32,4.17,6.0000,314.0000
1981-07-03 00:00:00 UTC,2444788.500000,28.7317,-95.2428,0109,-5.20,3.00,6.0000,300.0000
1981-07-03 00:30:00 UTC,2444788.520833,28.7317,-95.2428,0109,-6.89,1.22,7.0000,280.0000
1981-07-03 01:00:00 UTC,2444788.541667,28.7317,-95.2428,0109,-7.88,-1.39,8.0000,260.0000
1981-07-03 01:30:00 UTC,2444788.562500,28.7317,-95.2428,0109,-8.28,-3.52,9.0000,247.0000
1981-07-03 02:00:00 UTC,2444788.583333,28.7317,-95.2428,0109,-6.44,-2.74,7.0000,247.0000
1981-07-03 02:30:00 UTC,2444788.604167,28.7317,-95.2428,0109,-4.64,1.87,5.0000,292.0000
1981-07-03 03:00:00 UTC,2444788.625000,28.7317,-95.2428,0109,-5.59,8.29,10.0000,326.0000
1981-07-03 03:30:00 UTC,2444788.645833,28.7317,-95.2428,0109,-9.03,11.98,15.0000,323.0000
1981-07-03 04:00:00 UTC,2444788.666667,28.7317,-95.2428,0109,-8.18,8.78,12.0000,317.0000
1981-07-03 04:30:00 UTC,2444788.687500,28.7317,-95.2428,0109,-4.95,4.95,7.0000,315.0000
1981-07-03 05:00:00 UTC,2444788.708333,28.7317,-95.2428,0109,-3.71,5.94,7.0000,328.0000
1981-07-03 05:30:00 UTC,2444788.729167,28.7317,-95.2428,0109,-3.37,8.34,9.0000,338.0000
1981-07-03 06:00:00 UTC,2444788.750000,28.7317,-95.2428,0109,-2.85,10.63,11.0000,345.0000
1981-07-03 06:30:00 UTC,2444788.770833,28.7317,-95.2428,0109,-1.72,10.86,11.0000,351.0000
1981-07-03 07:00:00 UTC,2444788.791667,28.7317,-95.2428,0109,-0.38,10.99,11.0000,358.0000
1981-07-03 07:30:00 UTC,2444788.812500,28.7317,-95.2428,0109,-0.42,11.99,12.0000,358.0000
1981-07-03 08:00:00 UTC,2444788.833333,28.7317,-95.2428,0109,-0.84,11.97,12.0000,356.0000
1981-07-03 08:30:00 UTC,2444788.854167,28.7317,-95.2428,0109,-0.38,10.99,11.0000,358.0000
1981-07-03 09:00:00 UTC,2444788.875000,28.7317,-95.2428,0109,1.39,9.90,10.0000,8.0000
1981-07-03 09:30:00 UTC,2444788.895833,28.7317,-95.2428,0109,3.37,8.34,9.0000,22.0000